Location: Lombard
(41.8800°N, 88.0080°W)
Time: 12:40:59
(UTC-05:00)

A-11 Canister half - Pass Details

Date: 04 February 2023
Orbit: 1512 x 1687 km, 47.2° (Epoch: 20 March)

Event Time Altitude Azimuth Distance (km) Brightness Sun altitude
Rises 11:54:27 0° 255° (WSW) 4,840 11.7 31.9°
Reaches altitude 10° 11:57:38 10° 257° (WSW) 3,831 11.3 31.9°
Maximum altitude 12:07:22 74° 343° (NNW) 1,623 9.5 32.0°
Drops below altitude 10° 12:16:46 10° 69° (ENE) 3,707 10.9 31.9°
Sets 12:19:48 0° 71° (ENE) 4,676 11.3 31.9°
